This is the latest recevied weather packets stored in our database for station/object VK3XEM-13. If no packets are shown the sender has not sent any weather packets the latest 10 day(s).
| Time | Temp. | Humidity | Pressure | Rain* | Wind** | Luminosity | Snow |
|---|---|---|---|---|---|---|---|
| 1777480334 | 15.56° C | 70% | 1024.2 hPa | 0 mm | - | 0 W/m² | - |
| 1777479435 | 15.56° C | 71% | 1024.6 hPa | 0 mm | - | 0 W/m² | - |
| 1777478534 | 15.56° C | 71% | 1024.6 hPa | 0 mm | - | 0 W/m² | - |
| 1777477634 | 15° C | 74% | 1024.6 hPa | 0 mm | - | 0 W/m² | - |
| 1777476734 | 15° C | 74% | 1024.6 hPa | 0 mm | - | 0 W/m² | - |
| 1777475834 | 15.56° C | 74% | 1024.9 hPa | 0 mm | - | 0 W/m² | - |
| 1777474934 | 16.11° C | 73% | 1024.9 hPa | 0 mm | - | 0 W/m² | - |
| 1777474034 | 15.56° C | 73% | 1024.9 hPa | 0 mm | - | 0 W/m² | - |
| 1777473134 | 15.56° C | 74% | 1024.9 hPa | 0 mm | - | 0 W/m² | - |
| 1777472234 | 15° C | 77% | 1025.3 hPa | 0 mm | - | 0 W/m² | - |
| 1777471334 | 14.44° C | 79% | 1025.3 hPa | 0 mm | - | 0 W/m² | - |
| 1777470434 | 14.44° C | 81% | 1025.3 hPa | 0 mm | - | 0 W/m² | - |
| 1777469534 | 14.44° C | 81% | 1025.3 hPa | 0 mm | - | 0 W/m² | - |
| 1777468635 | 14.44° C | 82% | 1025.3 hPa | 0 mm | - | 0 W/m² | - |
| 1777467734 | 15° C | 81% | 1025.6 hPa | 0 mm | - | 0 W/m² | - |
| 1777466835 | 15.56° C | 80% | 1025.6 hPa | 0 mm | - | 0 W/m² | - |
| 1777465934 | 16.11° C | 78% | 1025.6 hPa | 0 mm | - | 0 W/m² | - |
| 1777465035 | 15.56° C | 82% | 1025.6 hPa | 0 mm | - | 0 W/m² | - |
| 1777464135 | 15.56° C | 82% | 1025.6 hPa | 0 mm | - | 0 W/m² | - |
| 1777463234 | 15.56° C | 82% | 1025.6 hPa | 0 mm | - | 0 W/m² | - |
| 1777462334 | 16.11° C | 81% | 1025.6 hPa | 0 mm | - | 0 W/m² | - |
| 1777461434 | 16.67° C | 80% | 1025.6 hPa | 0 mm | - | 0 W/m² | - |
| 1777460534 | 17.22° C | 78% | 1025.3 hPa | 0 mm | - | 0 W/m² | - |
| 1777459635 | 17.78° C | 75% | 1025.3 hPa | 0 mm | - | 0 W/m² | - |
| 1777458734 | 17.78° C | 75% | 1025.6 hPa | 0 mm | - | 0 W/m² | - |
* Rain latest hour (hover to see other rain measurements)
** Current wind speed in m/s (hover to see current wind gust speed)